Regional Weather Roundup
Issued by NWS

Home | Current Version | Previous Version | Graphics & Text | Print | Product List | Glossary On
Versions: 1 2 3 4 5 6 7 8 9 10 11 12 13 14 15 16 17 18 19 20 21 22 23 24 25 26 27 28 29 30 31 32 33 34 35 36 37 38 39 40 41 42 43 44 45 46 47 48 49 50
000
ASUS43 KOAX 242202
RWRNE

WEATHER ROUNDUP FOR NEBRASKA
NATIONAL WEATHER SERVICE OMAHA NE
400 PM CST SAT FEB 24 2018

NOTES: SATELLITE DATA IS BEING USED TO AUGMENT CLOUD COVER ABOVE
       12000 FEET.
       "FAIR" INDICATES FEW OR NO CLOUDS BELOW 12,000 FEET WITH NO
       SIGNIFICANT WEATHER AND/OR OBSTRUCTIONS TO VISIBILITY.


NEZ001>004-019>022-054>056-242300-
NEBRASKA PANHANDLE

CITY           SKY/WX    TMP DP  RH WIND       PRES   REMARKS
SCOTTSBLUFF    CLOUDY    32  12  43 NW22G30   29.75R WCI  19
ALLIANCE       SUNNY     27  15  61 NW22      29.71R WCI  13
CHADRON        SUNNY     27  15  61 W22       29.75S WCI  13
GORDON         CLOUDY    27  14  56 W20       29.71R WCI  14
KIMBALL        SUNNY     28  13  53 NW22G35   29.75R WCI  14
SIDNEY         SUNNY     33   9  36 NW35G41   29.76R WCI  18
$$

NEZ057>060-069>072-079>082-242300-
SOUTHWEST NEBRASKA

CITY           SKY/WX    TMP DP  RH WIND       PRES   REMARKS
NORTH PLATTE   SUNNY     33  18  53 NW25      29.72R WCI  20
IMPERIAL       SUNNY     36  15  42 NW30G41   29.74R WCI  23
LEXINGTON      MOSUNNY   38  25  59 NW25G31   29.71S WCI  26
MCCOOK         SUNNY     38  18  44 NW26G35   29.75R WCI  26
OGALLALA       SUNNY     35  16  45 NW31G38   29.74R WCI  21
$$

NEZ005>010-023>029-035>040-094-242300-
NORTH CENTRAL NEBRASKA

CITY           SKY/WX    TMP DP  RH WIND       PRES   REMARKS
VALENTINE      SUNNY     28  18  66 NW18G25   29.66R WCI  15
AINSWORTH      CLOUDY    29  24  81 NW21      29.64R WCI  16
BROKEN BOW     SUNNY     32  18  56 NW20G33   29.67R WCI  20
O`NEILL        CLOUDY    29  24  82 W13       29.64S WCI  19
ORD            SUNNY     33  24  69 W14       29.65F WCI  23
THEDFORD       MOSUNNY   31  19  59 NW17G26   29.68R WCI  20
$$

NEZ041-046>049-061>064-073>077-083>087-242300-
SOUTH CENTRAL NEBRASKA

CITY           SKY/WX    TMP DP  RH WIND       PRES   REMARKS
GRAND ISLAND   CLOUDY    32  28  85 SW13      29.69F WCI  22
AURORA         CLOUDY    29  26  89 SW9       29.70F WCI  21
HASTINGS       CLOUDY    32  28  85 W15       29.70F WCI  22
HEBRON         CLOUDY    32  29  88 W12       29.75F WCI  23
HOLDREGE       SUNNY     38  24  55 W21       29.71S WCI  28
KEARNEY        SUNNY     37  24  59 W17       29.70F WCI  27
YORK           CLOUDY    28  28 100 CALM      29.71F
$$

NEZ011>018-030>034-042>045-242300-
NORTHEAST NEBRASKA

CITY           SKY/WX    TMP DP  RH WIND       PRES   REMARKS
NORFOLK        LGT SNOW  25  21  85 SW12      29.65F FOG     WCI  14
ALBION         CLOUDY    29  25  85 SW9       29.67F WCI  20
BLAIR          CLOUDY    29  27  90 W8        29.68F WCI  21
COLUMBUS       CLOUDY    28  22  78 W13       29.71F WCI  17
FREMONT        CLOUDY    28  25  89 W7        29.70F WCI  21
TEKAMAH        CLOUDY    28  24  85 W8        29.70F WCI  20
WAYNE          CLOUDY    26  25  96 SW7       29.67F WCI  18
$$

NEZ050>053-065>068-078-088>093-242300-
SOUTHEAST NEBRASKA

CITY           SKY/WX    TMP DP  RH WIND       PRES   REMARKS
LINCOLN        CLOUDY    29  25  85 W9        29.72F WCI  20
OMAHA EPPLEY   CLOUDY    30  26  85 W12       29.69F WCI  20
BEATRICE       CLOUDY    31  28  91 W8        29.73S WCI  23
FALLS CITY     CLOUDY    31  29  92 NW10      29.73S FOG     WCI  22
NEBRASKA CITY  CLOUDY    30  30 100 W7        29.72R WCI  23
PLATTSMOUTH    CLOUDY    29  28  96 W9        29.70R WCI  21
$$

NEZ044-045-051>053-067-242300-
OMAHA AREA

CITY           SKY/WX    TMP DP  RH WIND       PRES   REMARKS
OMAHA EPPLEY   CLOUDY    30  26  85 W12       29.69F WCI  20
BLAIR          CLOUDY    29  27  90 W8        29.68F WCI  21
FREMONT        CLOUDY    28  25  89 W7        29.70F WCI  21
MILLARD        CLOUDY    31  27  87 W13       29.70F WCI  21
OFFUTT AFB     CLOUDY    30  27  91 W7        29.69S WCI  23
PLATTSMOUTH    CLOUDY    29  28  96 W9        29.70R WCI  21
WAHOO          CLOUDY    29  26  86 W9        29.70F WCI  21
$$




USA.gov is the U.S. government's official web portal to all federal, state and local government web resources and services.